Oceanside, CA

3:42 AM PST on December 14, 2019 (GMT -0800)
Oceanside Municipal

Weather History for KOKB - November, 2019

Change the Weather History Date:

Thursday, November 14, 2019

  Actual Average Record
Temperature  
Mean Temperature 61 °F 57 °F  
Max Temperature 71 °F 70 °F 88 °F (2013)
Min Temperature 51 °F 44 °F 34 °F (2000)
Degree Days  
Heating Degree Days 4 8  
Month to date heating degree days 75 95  
Since 1 July heating degree days 140 197  
Cooling Degree Days 0 0  
Month to date cooling degree days 0 0  
Year to date cooling degree days 590 416  
Growing Degree Days 11 (Base 50)    
Moisture  
Dew Point 53 °F    
Average Humidity 81    
Maximum Humidity 93    
Minimum Humidity 57    
Precipitation  
Precipitation 0.00 in 0.02 in 0.06 in (2014)
Month to date precipitation 0.00 0.58  
Year to date precipitation 11.10 11.06  
Sea Level Pressure  
Sea Level Pressure 30.08 in    
Wind  
Wind Speed 4 mph ()    
Max Wind Speed 14 mph    
Max Gust Speed 18 mph    
Visibility 4.2 miles    
Events      
T = Trace of Precipitation, MM = Missing Value Source: Averaged Metar Reports

Daily Weather History Graph

Daily Weather History Graph

Search for Another Location

Airport or City:

Astronomy

Nov. 14, 2019 Rise Set
Actual Time 6:19 AM PST 4:47 PM PST
Civil Twilight 5:53 AM PST 5:14 PM PST
Nautical Twilight 5:23 AM PST 5:44 PM PST
Astronomical Twilight 4:53 AM PST 6:13 PM PST
Moon 6:41 PM PST 8:16 AM PST
Length of Visible Light 11h 21m
Length of Day
10h 28m
Waning Gibbous, 95% of the Moon is Illuminated
Nov 14
Waning Gibbous
Nov 19
Last Quarter
Nov 26
New
Dec 3
First Quarter
Dec 11
Full

Hourly Weather History & Observations

Time (PST) Temp. Dew Point Humidity Pressure Visibility Wind Dir Wind Speed Gust Speed Precip Events Conditions
12:52 AM 59.0 °F 54.0 °F 83% 30.05 in 4.0 mi ENE 3.5 mph - N/A   Haze
1:27 AM 59.0 °F 54.0 °F 83% 30.05 in 3.0 mi ENE 4.6 mph - N/A   Haze
1:45 AM 59.0 °F 54.0 °F 83% 30.04 in 3.0 mi ENE 4.6 mph - N/A   Haze
2:01 AM 57.9 °F 54.0 °F 87% 30.04 in 3.0 mi ENE 5.8 mph - N/A   Overcast
2:29 AM 57.9 °F 54.0 °F 87% 30.05 in 2.5 mi ENE 5.8 mph - N/A   Overcast
2:45 AM 57.9 °F 54.0 °F 87% 30.04 in 3.0 mi ENE 8.1 mph - N/A   Overcast
2:52 AM 57.9 °F 54.0 °F 87% 30.04 in 3.0 mi NE 4.6 mph - N/A   Overcast
3:07 AM 57.0 °F 54.0 °F 89% 30.05 in 2.5 mi NE 4.6 mph - N/A   Overcast
3:52 AM 57.0 °F 53.1 °F 87% 30.04 in 2.5 mi ENE 4.6 mph - N/A   Overcast
4:22 AM 57.0 °F 53.1 °F 87% 30.05 in 1.8 mi NE 3.5 mph - N/A   Overcast
4:52 AM 55.9 °F 53.1 °F 90% 30.05 in 1.0 mi ENE 4.6 mph - N/A   Overcast
5:52 AM 55.9 °F 53.1 °F 90% 30.07 in 1.8 mi NE 4.6 mph - N/A   Overcast
6:45 AM 55.9 °F 53.1 °F 90% 30.09 in 1.5 mi ENE 4.6 mph - N/A   Overcast
6:52 AM 55.9 °F 53.1 °F 90% 30.09 in 1.5 mi NE 4.6 mph - N/A   Overcast
7:14 AM 55.9 °F 53.1 °F 90% 30.10 in 2.5 mi NE 4.6 mph - N/A   Overcast
7:33 AM 55.9 °F 52.0 °F 87% 30.10 in 1.8 mi NE 5.8 mph - N/A   Overcast
7:41 AM 55.9 °F 52.0 °F 87% 30.11 in 2.0 mi NE 5.8 mph - N/A   Overcast
7:52 AM 55.9 °F 52.0 °F 87% 30.11 in 3.0 mi NE 8.1 mph - N/A   Overcast
8:13 AM 57.0 °F 52.0 °F 83% 30.12 in 4.0 mi NE 4.6 mph - N/A   Haze
8:52 AM 59.0 °F 52.0 °F 78% 30.12 in 4.0 mi ENE 4.6 mph - N/A   Haze
9:52 AM 64.0 °F 53.1 °F 67% 30.11 in 5.0 mi Calm Calm - N/A   Haze
10:52 AM 68.0 °F 54.0 °F 61% 30.09 in 6.0 mi West 10.4 mph - N/A   Haze
11:52 AM 70.0 °F 54.0 °F 57% 30.07 in 7.0 mi Variable 5.8 mph - N/A   Clear
12:52 PM 69.1 °F 55.0 °F 61% 30.05 in 6.0 mi West 9.2 mph - N/A   Haze
1:52 PM 69.1 °F 55.0 °F 61% 30.04 in 9.0 mi West 10.4 mph - N/A   Clear
2:52 PM 68.0 °F 55.9 °F 65% 30.04 in 7.0 mi WSW 9.2 mph - N/A   Clear
3:52 PM 66.0 °F 55.9 °F 70% 30.05 in 7.0 mi West 6.9 mph 17.3 mph N/A   Clear
4:52 PM 64.0 °F 55.9 °F 75% 30.07 in 8.0 mi West 5.8 mph - N/A   Clear
5:52 PM 63.0 °F 55.9 °F 78% 30.08 in 8.0 mi Calm Calm - N/A   Clear
6:52 PM 62.1 °F 55.9 °F 80% 30.10 in 8.0 mi West 6.9 mph - N/A   Clear
7:52 PM 59.0 °F 54.0 °F 83% 30.11 in 7.0 mi Calm Calm - N/A   Clear
9:52 PM 54.0 °F 50.0 °F 86% 30.12 in 5.0 mi Calm Calm - N/A   Clear
10:52 PM 53.1 °F 50.0 °F 89% 30.12 in 4.0 mi Calm Calm - N/A   Clear
11:52 PM 54.0 °F 50.0 °F 86% 30.12 in 4.0 mi Calm Calm - N/A   Clear